Flag for Germany Weather past 2 weeks in Ingolstadt, Bavaria, Germany

Now
34 °F

Passing clouds.


Feels Like: 26 °F
Forecast: 31 / 38 °F
Wind: 10 mph from Southwest

Location: Ingolstadt Airport

Current Time: Jan 28, 2015 at 9:17:46 PM

Latest Report: Jan 28, 2015 at 8:20 PM


Visibility: N/A

Pressure: 29.68 "Hg

Humidity: 75%

Dew point: 27 °F

Location of IngolstadtLocation

Historic Weather in Ingolstadt — Graph

°F

Ingolstadt temperature yesterday

Maximum temperature yesterday: 36 °F (at 10:20 AM)
Minimum temperature yesterday: 32 °F (at 12:20 AM)
Average temperature yesterday: 34 °F

Past Weeks' High & Low Weather Summary

 TemperatureHumidityPressure
High50 °F (Jan 14, 3:20 AM)100% (Jan 15, 12:20 AM)30.36 "Hg (Jan 15, 12:20 AM)
Low28 °F (Jan 15, 2:20 AM)50% (Jan 14, 3:20 AM)29.68 "Hg (Jan 16, 5:20 PM)
Average34 °F90%29.99 "Hg
* Reported Jan 13 7:20 PM — Jan 28 7:20 PM, Ingolstadt, Weather by CustomWeather, © 2014

Note: Actual official high and low records may vary slightly from our data, if they occured in-between our weather recording intervals... More about our weather records

Advertising

Ingolstadt weather history for previous 24 hours

 ConditionsComfort  
Time TempWeatherWind HumidityBarometerVisibility
7:20 PM
Jan 28
34 °FChilly.9 mph75%29.74 "HgN/A
6:20 PM34 °FPartly cloudy.8 mph75%29.77 "HgN/A
5:20 PM36 °FPassing clouds.12 mph75%29.83 "HgN/A
4:20 PM36 °FPartly sunny.15 mph75%29.86 "HgN/A
3:20 PM37 °FPartly sunny.13 mph75%29.89 "HgN/A
2:20 PM37 °FPartly sunny.14 mph75%29.92 "HgN/A
1:20 PM37 °FPartly sunny.14 mph75%29.98 "HgN/A
12:20 PM36 °FPartly sunny.12 mph87%30.01 "HgN/A
11:20 AM36 °FPartly sunny.10 mph87%30.04 "HgN/A
10:20 AM34 °FPartly sunny.10 mph87%30.07 "HgN/A
9:20 AM32 °FLight snow. Partly sunny.8 mph93%30.09 "Hg4 mi
8:20 AM32 °FLight snow. Ice fog.7 mph93%30.09 "Hg2 mi
7:20 AM32 °FIce fog.7 mph100%30.09 "Hg2 mi
6:20 AM34 °FLow clouds.6 mph93%30.09 "Hg4 mi
5:20 AM34 °FLow clouds.7 mph93%30.09 "Hg4 mi
4:20 AM34 °FChilly.8 mph93%30.12 "HgN/A
3:20 AM34 °FChilly.6 mph93%30.12 "HgN/A
2:20 AM34 °FChilly.5 mph93%30.15 "HgN/A
1:20 AM34 °FChilly.5 mph93%30.12 "HgN/A
12:20 AM34 °FChilly.5 mph93%30.12 "HgN/A
11:20 PM
Jan 27
34 °FChilly.6 mph93%30.12 "HgN/A
10:20 PM34 °FChilly.5 mph93%30.15 "HgN/A
9:20 PM34 °FChilly.5 mph93%30.12 "HgN/A
Weather by CustomWeather, © 2014

See weather overviewHow to use our weather pages